Flag for Germany Weather past 2 weeks in Neumarkt in der Oberpfalz, Bavaria, Germany

Now
46 °F

Scattered clouds.


Feels Like: 41 °F
Forecast: 35 / 49 °F
Wind: 13 mph from West

Location: Hohenfels

Current Time: Mar 27, 2015 at 1:07:56 PM

Latest Report: Mar 27, 2015 at 11:58 AM


Visibility: N/A

Pressure: 30.04 "Hg

Humidity: 71%

Dew point: 37 °F

Location of Neumarkt in der OberpfalzLocation

Historic Weather in Neumarkt in der Oberpfalz — Graph

°F

Neumarkt in der Oberpfalz temperature yesterday

Maximum temperature yesterday: 46 °F (at 12:58 AM)
Minimum temperature yesterday: 39 °F (at 11:58 PM)
Average temperature yesterday: 43 °F

Past Weeks' High & Low Weather Summary

 TemperatureHumidityPressure
High63 °F (Mar 25, 1:58 PM)100% (Mar 18, 1:58 AM)30.44 "Hg (Mar 18, 1:58 AM)
Low25 °F (Mar 21, 4:58 AM)31% (Mar 16, 3:58 PM)29.59 "Hg (Mar 25, 10:58 PM)
Average41 °F74%30.10 "Hg
* Reported Mar 12 11:58 AM — Mar 27 11:58 AM, Neumarkt in der Oberpfalz, Weather by CustomWeather, © 2015

Note: Actual official high and low records may vary slightly from our data, if they occured in-between our weather recording intervals... More about our weather records

Advertising

Neumarkt in der Oberpfalz weather history for previous 24 hours

 ConditionsComfort  
Time TempWeatherWind HumidityBarometerVisibility
11:58 AM
Fri, Mar 27
46 °FScattered clouds.13 mph74%30.04 "HgN/A
10:58 AM39 °FRain. Fog.3 mph93%30.05 "Hg3 mi
10:03 AM43 °FBroken clouds.7 mph87%29.99 "HgN/A
9:58 AM42 °FMostly cloudy.7 mph92%30.03 "HgN/A
8:58 AM41 °FRain. Fog.7 mph93%30.01 "Hg4 mi
8:03 AM41 °FLight rain. Overcast.3 mph93%29.96 "HgN/A
7:58 AM40 °FOvercast.3 mph97%29.99 "HgN/A
6:58 AM40 °FLow clouds.7 mph98%29.98 "HgN/A
5:58 AM39 °FLight rain. Overcast.3 mph100%29.94 "HgN/A
4:58 AM39 °FOvercast.3 mph100%29.92 "HgN/A
3:58 AM38 °FLow clouds.2 mph99%29.91 "HgN/A
3:04 AM37 °FLight rain. Passing clouds.3 mph100%29.86 "HgN/A
2:58 AM37 °FLight rain. Mostly cloudy.2 mph100%29.90 "HgN/A
1:58 AM39 °FLight rain. Mostly cloudy.5 mph93%29.89 "HgN/A
12:58 AM40 °FOvercast.3 mph89%29.89 "HgN/A
11:58 PM
Thu, Mar 26
39 °FFog.No wind99%29.88 "Hg2 mi
11:01 PM39 °FFog.2 mph100%29.83 "Hg2 mi
9:58 PM40 °FFog.1 mph95%29.87 "Hg6 mi
8:58 PM41 °FLight rain. Fog.5 mph100%29.87 "Hg4 mi
7:58 PM42 °FLight rain. Fog.3 mph98%29.85 "Hg3 mi
6:58 PM42 °FLight rain. Fog.2 mph95%29.84 "Hg4 mi
6:03 PM43 °FLight rain. Fog.No wind87%29.80 "Hg4 mi
5:59 PM43 °FQuite cool.N/A87%29.80 "HgN/A
4:58 PM43 °FFog.6 mph86%29.81 "Hg4 mi
3:58 PM43 °FFog.6 mph87%29.82 "Hg5 mi
2:58 PM43 °FFog.5 mph87%29.81 "Hg3 mi
1:58 PM42 °FFog.6 mph92%29.81 "Hg2 mi
Weather by CustomWeather, © 2015

See weather overviewHow to use our weather pages